VLO6014 SAWH-SUMU

Flight info

Callsign VLO6014
Flight time 3h 13m
Altitude FL370
Route USU2B GRA T108 GUDUX UT108 PADIM UZ117 DONED UW33 MDP UM792 DARKA
Aircraft B703/H-VRDW/C

Departure

Time 2026-04-21 15:39
Airport Ushuaia - Malvinas Argentinas International Airport (SAWH)

Arrival

Time 2026-04-21 18:52
Airport Carrasco General Cesáreo L. Berisso International Airport (SUMU)
Time Latitude Longitude Altitude Speed Heading
2026-04-21 15:19 -54.84106 -68.31112 100 ft 0 kts 355°
2026-04-21 15:20 -54.84107 -68.31112 100 ft 0 kts 355°
2026-04-21 15:29 -54.84106 -68.31112 100 ft 1 kts 355°
2026-04-21 15:29 -54.84089 -68.31113 101 ft 4 kts
2026-04-21 15:30 -54.84073 -68.31068 101 ft 6 kts 100°
2026-04-21 15:30 -54.84077 -68.31051 101 ft 3 kts 110°
2026-04-21 15:30 -54.84100 -68.31006 102 ft 8 kts 154°
2026-04-21 15:30 -54.84166 -68.30985 101 ft 9 kts 173°
2026-04-21 15:31 -54.84190 -68.30979 100 ft 0 kts 172°
2026-04-21 15:31 -54.84201 -68.30978 100 ft 5 kts 177°
2026-04-21 15:32 -54.84247 -68.30974 99 ft 0 kts 177°
2026-04-21 15:33 -54.84263 -68.30973 99 ft 5 kts 177°
2026-04-21 15:33 -54.84287 -68.30971 99 ft 2 kts 177°
2026-04-21 15:34 -54.84290 -68.30971 98 ft 0 kts 177°
2026-04-21 15:34 -54.84298 -68.30970 98 ft 4 kts 177°
2026-04-21 15:34 -54.84352 -68.30966 97 ft 11 kts 177°
2026-04-21 15:34 -54.84386 -68.30840 98 ft 16 kts 84°
2026-04-21 15:35 -54.84377 -68.30627 100 ft 20 kts 86°
2026-04-21 15:35 -54.84367 -68.30364 102 ft 24 kts 85°
2026-04-21 15:35 -54.84353 -68.30045 102 ft 29 kts 85°
2026-04-21 15:35 -54.84339 -68.29667 102 ft 34 kts 86°
2026-04-21 15:36 -54.84321 -68.29227 99 ft 37 kts 85°
2026-04-21 15:36 -54.84305 -68.28812 94 ft 32 kts 85°
2026-04-21 15:36 -54.84296 -68.28456 89 ft 27 kts 84°
2026-04-21 15:36 -54.84279 -68.28154 84 ft 23 kts 86°
2026-04-21 15:37 -54.84270 -68.27903 80 ft 19 kts 86°
2026-04-21 15:37 -54.84261 -68.27695 76 ft 16 kts 85°
2026-04-21 15:37 -54.84225 -68.27527 74 ft 14 kts 60°
2026-04-21 15:37 -54.84210 -68.27394 73 ft 10 kts 84°
2026-04-21 15:38 -54.84214 -68.27280 70 ft 10 kts 141°
2026-04-21 15:38 -54.84248 -68.27360 69 ft 9 kts 267°
2026-04-21 15:38 -54.84254 -68.27523 72 ft 37 kts 267°
2026-04-21 15:38 -54.84290 -68.28439 89 ft 116 kts 267°
2026-04-21 15:39 -54.84369 -68.30262 151 ft 184 kts 266°
2026-04-21 15:39 -54.84505 -68.32742 493 ft 228 kts 265°
2026-04-21 15:39 -54.85118 -68.35126 1836 ft 197 kts 230°
2026-04-21 15:39 -54.86252 -68.36329 2659 ft 198 kts 193°
2026-04-21 15:40 -54.87609 -68.36143 3279 ft 202 kts 155°
2026-04-21 15:40 -54.88652 -68.34553 3909 ft 202 kts 116°
2026-04-21 15:40 -54.88996 -68.32238 4535 ft 201 kts 92°
2026-04-21 15:40 -54.89095 -68.29831 5160 ft 202 kts 91°
2026-04-21 15:41 -54.89183 -68.27399 5785 ft 204 kts 91°
2026-04-21 15:41 -54.89272 -68.24942 6411 ft 206 kts 91°
2026-04-21 15:41 -54.89361 -68.22461 7038 ft 209 kts 91°
2026-04-21 15:41 -54.89452 -68.19905 7674 ft 217 kts 91°
2026-04-21 15:42 -54.89547 -68.17226 8275 ft 228 kts 91°
2026-04-21 15:42 -54.89647 -68.14404 8795 ft 242 kts 91°
2026-04-21 15:42 -54.89752 -68.11423 9311 ft 256 kts 91°
2026-04-21 15:42 -54.89863 -68.08278 9825 ft 269 kts 91°
2026-04-21 15:43 -54.89981 -68.04969 10338 ft 282 kts 92°
2026-04-21 15:43 -54.90104 -68.01514 10849 ft 293 kts 92°
2026-04-21 15:43 -54.90232 -67.97953 11356 ft 302 kts 92°
2026-04-21 15:43 -54.90368 -67.94229 11870 ft 316 kts 92°
2026-04-21 15:44 -54.90514 -67.90362 12381 ft 329 kts 92°
2026-04-21 15:44 -54.90569 -67.86357 12883 ft 339 kts 81°
2026-04-21 15:44 -54.89832 -67.82462 13390 ft 347 kts 58°
2026-04-21 15:44 -54.88284 -67.79264 13894 ft 352 kts 37°
2026-04-21 15:45 -54.86168 -67.77229 14397 ft 352 kts 19°
2026-04-21 15:45 -54.83840 -67.75921 14901 ft 354 kts 15°
2026-04-21 15:45 -54.81464 -67.74718 15404 ft 357 kts 15°
2026-04-21 15:45 -54.79076 -67.73527 15905 ft 360 kts 15°
2026-04-21 15:46 -54.76684 -67.72335 16442 ft 362 kts 15°
2026-04-21 15:46 -54.74257 -67.71126 17067 ft 366 kts 15°
2026-04-21 15:46 -54.71804 -67.70023 17685 ft 368 kts
2026-04-21 15:46 -54.69251 -67.69823 18316 ft 371 kts 359°
2026-04-21 15:47 -54.66667 -67.69922 18942 ft 375 kts 358°
2026-04-21 15:47 -54.64045 -67.70062 19572 ft 378 kts 357°
2026-04-21 15:47 -54.61416 -67.70206 20197 ft 382 kts 357°
2026-04-21 15:47 -54.58768 -67.70351 20821 ft 385 kts 357°
2026-04-21 15:48 -54.56101 -67.70498 21445 ft 387 kts 357°
2026-04-21 15:48 -54.53421 -67.70644 22068 ft 388 kts 357°
2026-04-21 15:48 -54.50732 -67.70791 22657 ft 390 kts 357°
2026-04-21 15:48 -54.48030 -67.70938 23159 ft 393 kts 357°
2026-04-21 15:49 -54.45287 -67.71087 23662 ft 395 kts 357°
2026-04-21 15:49 -54.42544 -67.71236 24158 ft 397 kts 357°
2026-04-21 15:49 -54.39789 -67.71385 24541 ft 401 kts 357°
2026-04-21 15:49 -54.37009 -67.71535 24917 ft 404 kts 358°
2026-04-21 15:50 -54.34201 -67.71686 25292 ft 407 kts 358°
2026-04-21 15:50 -54.31383 -67.71837 25667 ft 409 kts 358°
2026-04-21 15:50 -54.28553 -67.71988 26041 ft 410 kts 358°
2026-04-21 15:50 -54.25693 -67.72140 26373 ft 412 kts 358°
2026-04-21 15:51 -54.22836 -67.72291 26625 ft 415 kts 358°
2026-04-21 15:51 -54.19959 -67.72443 26876 ft 418 kts 358°
2026-04-21 15:51 -54.17059 -67.72596 27126 ft 420 kts 358°
2026-04-21 15:51 -54.14157 -67.72748 27376 ft 421 kts 358°
2026-04-21 15:52 -54.11237 -67.72900 27625 ft 422 kts 358°
2026-04-21 15:52 -54.08317 -67.73052 27874 ft 423 kts 358°
2026-04-21 15:52 -54.05373 -67.73204 28125 ft 423 kts 358°
2026-04-21 15:52 -54.02454 -67.73354 28373 ft 422 kts 358°
2026-04-21 15:53 -53.99532 -67.73503 28621 ft 422 kts 358°
2026-04-21 15:53 -53.96618 -67.73651 28869 ft 421 kts 358°
2026-04-21 15:53 -53.93713 -67.73797 29117 ft 419 kts 358°
2026-04-21 15:53 -53.90823 -67.73941 29358 ft 418 kts 358°
2026-04-21 15:54 -53.87929 -67.74084 29487 ft 419 kts 358°
2026-04-21 15:54 -53.85008 -67.74227 29613 ft 420 kts 358°
2026-04-21 15:54 -53.82098 -67.74366 29738 ft 421 kts 358°
2026-04-21 15:54 -53.79190 -67.74451 29859 ft 422 kts
2026-04-21 15:55 -53.76308 -67.73700 29986 ft 422 kts 12°
2026-04-21 15:55 -53.73475 -67.72479 30111 ft 423 kts 14°
2026-04-21 15:55 -53.70653 -67.71171 30236 ft 424 kts 14°
2026-04-21 15:55 -53.67819 -67.69843 30287 ft 426 kts 14°
2026-04-21 15:56 -53.62088 -67.67155 30350 ft 431 kts 14°
2026-04-21 15:56 -53.56319 -67.64454 30412 ft 435 kts 14°
2026-04-21 15:57 -53.50507 -67.61739 30474 ft 438 kts 14°
2026-04-21 15:57 -53.44631 -67.59001 30535 ft 440 kts 14°
2026-04-21 15:58 -53.38748 -67.56266 30596 ft 442 kts 14°
2026-04-21 15:58 -53.32845 -67.53528 30657 ft 444 kts 14°
2026-04-21 15:59 -53.26918 -67.50785 30717 ft 445 kts 14°
2026-04-21 15:59 -53.20960 -67.48034 30778 ft 446 kts 14°
2026-04-21 16:00 -53.15008 -67.45292 30838 ft 447 kts 14°
2026-04-21 16:00 -53.09045 -67.42549 30898 ft 448 kts 14°
2026-04-21 16:01 -53.03052 -67.39798 30958 ft 448 kts 14°
2026-04-21 16:01 -52.97075 -67.37058 31018 ft 449 kts 14°
2026-04-21 16:02 -52.91093 -67.34320 31078 ft 449 kts 14°
2026-04-21 16:02 -52.85105 -67.31580 31138 ft 449 kts 14°
2026-04-21 16:03 -52.79094 -67.28827 31198 ft 449 kts 14°
2026-04-21 16:03 -52.73103 -67.26099 31258 ft 450 kts 14°
2026-04-21 16:04 -52.67095 -67.23395 31318 ft 450 kts 14°
2026-04-21 16:04 -52.61071 -67.20692 31378 ft 450 kts 14°
2026-04-21 16:05 -52.55067 -67.18006 31438 ft 450 kts 14°
2026-04-21 16:05 -52.49052 -67.15322 31497 ft 450 kts 14°
2026-04-21 16:06 -52.43043 -67.12648 31557 ft 450 kts 14°
2026-04-21 16:06 -52.37007 -67.09970 31617 ft 451 kts 14°
2026-04-21 16:07 -52.30989 -67.07306 31677 ft 451 kts 14°
2026-04-21 16:07 -52.24970 -67.04649 31737 ft 451 kts 14°
2026-04-21 16:08 -52.15907 -67.00662 31826 ft 451 kts 14°
2026-04-21 16:09 -52.09890 -66.98024 31886 ft 451 kts 14°
2026-04-21 16:09 -52.03863 -66.95388 31946 ft 451 kts 14°
2026-04-21 16:10 -51.97816 -66.92751 32006 ft 451 kts 14°
2026-04-21 16:10 -51.91786 -66.90128 32066 ft 451 kts 14°
2026-04-21 16:11 -51.85755 -66.87511 32125 ft 451 kts 14°
2026-04-21 16:11 -51.79723 -66.84901 32185 ft 451 kts 14°
2026-04-21 16:12 -51.73665 -66.82286 32245 ft 452 kts 14°
2026-04-21 16:12 -51.67630 -66.79688 32305 ft 452 kts 14°
2026-04-21 16:13 -51.61596 -66.77097 32364 ft 452 kts 14°
2026-04-21 16:13 -51.55533 -66.74501 32424 ft 452 kts 14°
2026-04-21 16:14 -51.49489 -66.71919 32484 ft 452 kts 14°
2026-04-21 16:14 -51.43450 -66.69346 32544 ft 452 kts 14°
2026-04-21 16:15 -51.37403 -66.66775 32603 ft 452 kts 14°
2026-04-21 16:15 -51.31336 -66.64203 32663 ft 452 kts 14°
2026-04-21 16:16 -51.25289 -66.61646 32723 ft 452 kts 14°
2026-04-21 16:16 -51.19245 -66.59096 32783 ft 452 kts 14°
2026-04-21 16:17 -51.13172 -66.56541 32843 ft 452 kts 14°
2026-04-21 16:17 -51.07125 -66.54002 32902 ft 452 kts 14°
2026-04-21 16:18 -51.01073 -66.51468 32962 ft 452 kts 14°
2026-04-21 16:18 -50.95026 -66.48942 33022 ft 452 kts 14°
2026-04-21 16:19 -50.88959 -66.46414 33081 ft 452 kts 14°
2026-04-21 16:19 -50.82912 -66.43900 33141 ft 452 kts 14°
2026-04-21 16:20 -50.76865 -66.41392 33201 ft 452 kts 14°
2026-04-21 16:20 -50.70793 -66.38879 33260 ft 452 kts 14°
2026-04-21 16:21 -50.64746 -66.36383 33320 ft 452 kts 14°
2026-04-21 16:21 -50.58699 -66.33892 33380 ft 452 kts 14°
2026-04-21 16:22 -50.52652 -66.31407 33439 ft 452 kts 14°
2026-04-21 16:22 -50.46587 -66.28921 33499 ft 451 kts 14°
2026-04-21 16:23 -50.40540 -66.26447 33559 ft 451 kts 14°
2026-04-21 16:23 -50.34497 -66.23979 33618 ft 451 kts 14°
2026-04-21 16:24 -50.28437 -66.21510 33678 ft 451 kts 14°
2026-04-21 16:24 -50.22390 -66.19052 33738 ft 451 kts 14°
2026-04-21 16:25 -50.16353 -66.16602 33797 ft 451 kts 14°
2026-04-21 16:25 -50.10311 -66.14155 33857 ft 451 kts 14°
2026-04-21 16:26 -50.04248 -66.11704 33917 ft 451 kts 13°
2026-04-21 16:26 -49.98215 -66.09269 33976 ft 451 kts 13°
2026-04-21 16:27 -49.92182 -66.06838 34036 ft 451 kts 13°
2026-04-21 16:27 -49.86122 -66.04398 34096 ft 450 kts 13°
2026-04-21 16:28 -49.80096 -66.01976 34155 ft 450 kts 13°
2026-04-21 16:28 -49.74065 -65.99551 34215 ft 450 kts 14°
2026-04-21 16:29 -49.68043 -65.97128 34274 ft 450 kts 14°
2026-04-21 16:29 -49.61998 -65.94706 34334 ft 450 kts 13°
2026-04-21 16:30 -49.55969 -65.92335 34393 ft 449 kts 13°
2026-04-21 16:30 -49.49942 -65.89974 34453 ft 449 kts 13°
2026-04-21 16:31 -49.43897 -65.87612 34513 ft 449 kts 13°
2026-04-21 16:31 -49.37874 -65.85263 34572 ft 449 kts 13°
2026-04-21 16:32 -49.31859 -65.82923 34632 ft 449 kts 13°
2026-04-21 16:32 -49.25839 -65.80587 34691 ft 448 kts 13°
2026-04-21 16:33 -49.19803 -65.78250 34751 ft 448 kts 13°
2026-04-21 16:33 -49.13793 -65.75928 34810 ft 448 kts 13°
2026-04-21 16:34 -49.07783 -65.73612 34870 ft 448 kts 13°
2026-04-21 16:34 -49.01754 -65.71293 34930 ft 448 kts 13°
2026-04-21 16:35 -48.95743 -65.68986 34989 ft 448 kts 13°
2026-04-21 16:35 -48.89743 -65.66689 35049 ft 447 kts 13°
2026-04-21 16:36 -48.83736 -65.64394 35108 ft 447 kts 13°
2026-04-21 16:36 -48.77703 -65.62095 35168 ft 447 kts 13°
2026-04-21 16:37 -48.71709 -65.59815 35228 ft 447 kts 13°
2026-04-21 16:37 -48.65708 -65.57537 35287 ft 447 kts 13°
2026-04-21 16:38 -48.59711 -65.55266 35347 ft 447 kts 13°
2026-04-21 16:38 -48.53692 -65.52991 35407 ft 446 kts 13°
2026-04-21 16:39 -48.47697 -65.50730 35466 ft 446 kts 13°
2026-04-21 16:39 -48.41710 -65.48477 35526 ft 446 kts 13°
2026-04-21 16:40 -48.35697 -65.46218 35586 ft 446 kts 13°
2026-04-21 16:40 -48.29727 -65.43980 35645 ft 446 kts 13°
2026-04-21 16:41 -48.23718 -65.41732 35705 ft 446 kts 13°
2026-04-21 16:41 -48.17731 -65.39496 35764 ft 446 kts 13°
2026-04-21 16:42 -48.11727 -65.37258 35824 ft 446 kts 13°
2026-04-21 16:42 -48.05739 -65.35030 35884 ft 445 kts 13°
2026-04-21 16:43 -47.99764 -65.32811 35943 ft 445 kts 13°
2026-04-21 16:43 -47.93758 -65.30583 36003 ft 445 kts 13°
2026-04-21 16:44 -47.87779 -65.28370 36063 ft 445 kts 13°
2026-04-21 16:44 -47.81802 -65.26160 36122 ft 445 kts 13°
2026-04-21 16:45 -47.75822 -65.23952 36182 ft 445 kts 13°
2026-04-21 16:45 -47.69825 -65.21740 36242 ft 445 kts 13°
2026-04-21 16:46 -47.63849 -65.19536 36269 ft 446 kts 13°
2026-04-21 16:46 -47.57857 -65.17327 36269 ft 447 kts 13°
2026-04-21 16:47 -47.51828 -65.15101 36269 ft 448 kts 13°
2026-04-21 16:47 -47.45804 -65.12886 36269 ft 449 kts 13°
2026-04-21 16:48 -47.39770 -65.10699 36269 ft 449 kts 13°
2026-04-21 16:48 -47.33722 -65.08512 36269 ft 450 kts 13°
2026-04-21 16:49 -47.27642 -65.06319 36269 ft 451 kts 13°
2026-04-21 16:49 -47.21584 -65.04138 36269 ft 451 kts 13°
2026-04-21 16:50 -47.15513 -65.01956 36269 ft 452 kts 13°
2026-04-21 16:50 -47.09414 -64.99769 36269 ft 452 kts 13°
2026-04-21 16:51 -47.03329 -64.97591 36269 ft 452 kts 13°
2026-04-21 16:51 -46.97249 -64.95418 36269 ft 453 kts 13°
2026-04-21 16:52 -46.91164 -64.93249 36269 ft 453 kts 13°
2026-04-21 16:52 -46.85054 -64.91073 36269 ft 453 kts 13°
2026-04-21 16:53 -46.78961 -64.88908 36269 ft 453 kts 13°
2026-04-21 16:53 -46.72863 -64.86745 36269 ft 453 kts 13°
2026-04-21 16:54 -46.66750 -64.84581 36269 ft 453 kts 13°
2026-04-21 16:54 -46.60652 -64.82424 36269 ft 453 kts 13°
2026-04-21 16:55 -46.54559 -64.80273 36269 ft 453 kts 13°
2026-04-21 16:55 -46.48461 -64.78123 36269 ft 453 kts 13°
2026-04-21 16:56 -46.42341 -64.75968 36269 ft 453 kts 13°
2026-04-21 16:56 -46.36239 -64.73821 36269 ft 453 kts 13°
2026-04-21 16:57 -46.30135 -64.71674 36269 ft 453 kts 13°
2026-04-21 16:57 -46.24019 -64.69523 36269 ft 453 kts 13°
2026-04-21 16:58 -46.17917 -64.67373 36269 ft 454 kts 13°
2026-04-21 16:58 -46.11813 -64.65257 36269 ft 453 kts 12°
2026-04-21 16:59 -46.05698 -64.63196 36269 ft 454 kts 12°
2026-04-21 16:59 -45.99564 -64.61135 36269 ft 454 kts 12°
2026-04-21 17:00 -45.93452 -64.59086 36269 ft 454 kts 12°
2026-04-21 17:00 -45.88337 -64.57374 36269 ft 454 kts 12°
2026-04-21 17:01 -45.81197 -64.54988 36269 ft 454 kts 12°
2026-04-21 17:01 -45.75080 -64.52949 36269 ft 454 kts 12°
2026-04-21 17:02 -45.68959 -64.50911 36269 ft 454 kts 12°
2026-04-21 17:02 -45.62842 -64.48878 36269 ft 454 kts 12°
2026-04-21 17:03 -45.56700 -64.46840 36269 ft 454 kts 12°
2026-04-21 17:03 -45.50579 -64.44812 36269 ft 454 kts 12°
2026-04-21 17:04 -45.44455 -64.42786 36269 ft 454 kts 12°
2026-04-21 17:04 -45.38335 -64.40764 36269 ft 454 kts 12°
2026-04-21 17:05 -45.32185 -64.38734 36269 ft 454 kts 12°
2026-04-21 17:05 -45.26738 -64.36938 36269 ft 454 kts 12°
2026-04-21 17:06 -45.20413 -64.34854 36269 ft 454 kts 12°
2026-04-21 17:06 -45.14293 -64.32837 36269 ft 454 kts 12°
2026-04-21 17:07 -45.08144 -64.30810 36269 ft 454 kts 12°
2026-04-21 17:07 -45.02032 -64.28724 36265 ft 454 kts 17°
2026-04-21 17:08 -44.96371 -64.24885 36270 ft 455 kts 28°
2026-04-21 17:08 -44.90893 -64.20508 36269 ft 455 kts 28°
2026-04-21 17:09 -44.82664 -64.13899 36269 ft 455 kts 28°
2026-04-21 17:09 -44.77192 -64.09515 36269 ft 455 kts 28°
2026-04-21 17:10 -44.71713 -64.05134 36269 ft 455 kts 28°
2026-04-21 17:10 -44.66223 -64.00753 36269 ft 455 kts 28°
2026-04-21 17:11 -44.60746 -63.96391 36269 ft 455 kts 28°
2026-04-21 17:11 -44.55269 -63.92039 36269 ft 455 kts 28°
2026-04-21 17:12 -44.49767 -63.87676 36269 ft 455 kts 28°
2026-04-21 17:12 -44.44290 -63.83341 36269 ft 455 kts 28°
2026-04-21 17:13 -44.38812 -63.79014 36269 ft 455 kts 28°
2026-04-21 17:13 -44.33325 -63.74689 36269 ft 455 kts 28°
2026-04-21 17:14 -44.27822 -63.70359 36269 ft 455 kts 28°
2026-04-21 17:14 -44.22333 -63.66049 36269 ft 455 kts 28°
2026-04-21 17:15 -44.16846 -63.61749 36269 ft 455 kts 28°
2026-04-21 17:15 -44.11335 -63.57439 36269 ft 455 kts 28°
2026-04-21 17:16 -44.05847 -63.53155 36269 ft 455 kts 28°
2026-04-21 17:16 -44.00351 -63.48873 36269 ft 455 kts 28°
2026-04-21 17:17 -43.94857 -63.44600 36269 ft 455 kts 28°
2026-04-21 17:17 -43.89339 -63.40318 36269 ft 455 kts 28°
2026-04-21 17:18 -43.83840 -63.36057 36269 ft 455 kts 28°
2026-04-21 17:18 -43.78342 -63.31805 36269 ft 455 kts 28°
2026-04-21 17:19 -43.72821 -63.27544 36269 ft 455 kts 28°
2026-04-21 17:19 -43.67318 -63.23304 36269 ft 455 kts 28°
2026-04-21 17:20 -43.61814 -63.19070 36269 ft 455 kts 28°
2026-04-21 17:20 -43.56312 -63.14845 36269 ft 455 kts 28°
2026-04-21 17:21 -43.50784 -63.10607 36269 ft 455 kts 28°
2026-04-21 17:21 -43.45278 -63.06394 36269 ft 455 kts 28°
2026-04-21 17:22 -43.39772 -63.02186 36269 ft 455 kts 28°
2026-04-21 17:22 -43.34239 -62.97964 36269 ft 455 kts 28°
2026-04-21 17:23 -43.28729 -62.93766 36269 ft 455 kts 28°
2026-04-21 17:23 -43.23217 -62.89571 36269 ft 455 kts 28°
2026-04-21 17:24 -43.17703 -62.85379 36269 ft 455 kts 28°
2026-04-21 17:24 -43.12180 -62.81182 36269 ft 455 kts 28°
2026-04-21 17:25 -43.06668 -62.76993 36269 ft 455 kts 28°
2026-04-21 17:25 -43.01126 -62.72901 36269 ft 455 kts 25°
2026-04-21 17:26 -42.95442 -62.69119 36269 ft 455 kts 25°
2026-04-21 17:26 -42.89769 -62.65394 36269 ft 455 kts 25°
2026-04-21 17:27 -42.84092 -62.61674 36269 ft 455 kts 25°
2026-04-21 17:27 -42.78409 -62.57959 36269 ft 455 kts 25°
2026-04-21 17:28 -42.72711 -62.54241 36269 ft 455 kts 25°
2026-04-21 17:28 -42.67032 -62.50542 36269 ft 455 kts 25°
2026-04-21 17:29 -42.61347 -62.46847 36269 ft 455 kts 24°
2026-04-21 17:29 -42.55645 -62.43147 36269 ft 455 kts 24°
2026-04-21 17:30 -42.49959 -62.39465 36269 ft 455 kts 24°
2026-04-21 17:30 -42.44274 -62.35791 36269 ft 455 kts 24°
2026-04-21 17:31 -42.38584 -62.32121 36269 ft 455 kts 24°
2026-04-21 17:31 -42.32875 -62.28445 36269 ft 455 kts 24°
2026-04-21 17:32 -42.27186 -62.24789 36269 ft 455 kts 24°
2026-04-21 17:32 -42.21490 -62.21136 36269 ft 455 kts 24°
2026-04-21 17:33 -42.15780 -62.17480 36269 ft 455 kts 24°
2026-04-21 17:33 -42.10083 -62.13839 36269 ft 455 kts 24°
2026-04-21 17:34 -42.04391 -62.10209 36269 ft 455 kts 24°
2026-04-21 17:34 -41.98693 -62.06581 36269 ft 455 kts 24°
2026-04-21 17:35 -41.92971 -62.02945 36269 ft 455 kts 24°
2026-04-21 17:35 -41.87274 -61.99331 36269 ft 455 kts 24°
2026-04-21 17:36 -41.81571 -61.95720 36269 ft 455 kts 24°
2026-04-21 17:36 -41.75850 -61.92105 36269 ft 455 kts 24°
2026-04-21 17:37 -41.70144 -61.88505 36269 ft 455 kts 24°
2026-04-21 17:37 -41.64445 -61.84916 36269 ft 455 kts 24°
2026-04-21 17:38 -41.58737 -61.81327 36269 ft 455 kts 24°
2026-04-21 17:38 -41.53005 -61.77731 36269 ft 455 kts 24°
2026-04-21 17:39 -41.47304 -61.74159 36269 ft 455 kts 24°
2026-04-21 17:39 -41.41594 -61.70588 36269 ft 455 kts 24°
2026-04-21 17:40 -41.35861 -61.67010 36269 ft 455 kts 24°
2026-04-21 17:40 -41.30149 -61.63450 36269 ft 455 kts 24°
2026-04-21 17:41 -41.24437 -61.59897 36269 ft 455 kts 24°
2026-04-21 17:41 -41.18724 -61.56348 36269 ft 455 kts 24°
2026-04-21 17:42 -41.12989 -61.52792 36269 ft 455 kts 24°
2026-04-21 17:42 -41.07272 -61.49253 36269 ft 455 kts 24°
2026-04-21 17:43 -41.01554 -61.45719 36269 ft 455 kts 24°
2026-04-21 17:43 -40.95811 -61.42175 36269 ft 455 kts 24°
2026-04-21 17:44 -40.90097 -61.38655 36269 ft 455 kts 24°
2026-04-21 17:44 -40.84376 -61.35136 36269 ft 456 kts 24°
2026-04-21 17:45 -40.78656 -61.31622 36269 ft 456 kts 24°
2026-04-21 17:45 -40.72914 -61.28100 36269 ft 456 kts 24°
2026-04-21 17:46 -40.67192 -61.24594 36269 ft 456 kts 24°
2026-04-21 17:46 -40.61471 -61.21094 36269 ft 456 kts 24°
2026-04-21 17:47 -40.55724 -61.17582 36269 ft 456 kts 24°
2026-04-21 17:47 -40.50004 -61.14089 36269 ft 456 kts 24°
2026-04-21 17:48 -40.44275 -61.10594 36269 ft 456 kts 24°
2026-04-21 17:48 -40.38554 -61.07103 36269 ft 456 kts 24°
2026-04-21 17:49 -40.32809 -61.03597 36269 ft 456 kts 24°
2026-04-21 17:49 -40.27082 -61.00125 36269 ft 456 kts 24°
2026-04-21 17:50 -40.21336 -60.96684 36269 ft 456 kts 24°
2026-04-21 17:50 -40.15582 -60.93246 36269 ft 456 kts 24°
2026-04-21 17:51 -40.09834 -60.89815 36269 ft 456 kts 24°
2026-04-21 17:51 -40.04094 -60.86394 36269 ft 456 kts 24°
2026-04-21 17:52 -39.98347 -60.82974 36269 ft 456 kts 24°
2026-04-21 17:52 -39.92584 -60.79547 36269 ft 456 kts 24°
2026-04-21 17:53 -39.86841 -60.76136 36269 ft 456 kts 24°
2026-04-21 17:53 -39.81096 -60.72726 36269 ft 456 kts 24°
2026-04-21 17:54 -39.75328 -60.69303 36269 ft 456 kts 24°
2026-04-21 17:54 -39.69586 -60.65892 36268 ft 456 kts 24°
2026-04-21 17:55 -39.66873 -60.63795 36267 ft 457 kts 37°
2026-04-21 17:55 -39.64566 -60.60990 36270 ft 458 kts 48°
2026-04-21 17:55 -39.60739 -60.54424 36269 ft 459 kts 53°
2026-04-21 17:56 -39.57045 -60.47681 36269 ft 460 kts 53°
2026-04-21 17:56 -39.53364 -60.40953 36269 ft 460 kts 53°
2026-04-21 17:57 -39.49683 -60.34236 36269 ft 460 kts 53°
2026-04-21 17:57 -39.45985 -60.27499 36269 ft 460 kts 53°
2026-04-21 17:58 -39.42297 -60.20793 36269 ft 460 kts 53°
2026-04-21 17:58 -39.38602 -60.14088 36269 ft 460 kts 53°
2026-04-21 17:59 -39.34908 -60.07395 36269 ft 460 kts 53°
2026-04-21 17:59 -39.31194 -60.00678 36269 ft 460 kts 53°
2026-04-21 18:00 -39.27489 -59.93989 36269 ft 460 kts 53°
2026-04-21 18:00 -39.23784 -59.87309 36269 ft 460 kts 53°
2026-04-21 18:01 -39.20061 -59.80610 36269 ft 460 kts 53°
2026-04-21 18:01 -39.16348 -59.73939 36269 ft 460 kts 53°
2026-04-21 18:02 -39.12636 -59.67279 36269 ft 460 kts 53°
2026-04-21 18:02 -39.08920 -59.60623 36269 ft 460 kts 53°
2026-04-21 18:03 -39.05186 -59.53943 36269 ft 460 kts 53°
2026-04-21 18:03 -39.01461 -59.47288 36269 ft 460 kts 53°
2026-04-21 18:04 -38.97739 -59.40645 36269 ft 460 kts 53°
2026-04-21 18:04 -38.94002 -59.33980 36269 ft 461 kts 53°
2026-04-21 18:05 -38.90278 -59.27339 36269 ft 461 kts 53°
2026-04-21 18:05 -38.86560 -59.20701 36269 ft 461 kts 53°
2026-04-21 18:06 -38.82838 -59.14070 36269 ft 461 kts 53°
2026-04-21 18:06 -38.79091 -59.07425 36269 ft 461 kts 53°
2026-04-21 18:07 -38.75351 -59.00804 36269 ft 461 kts 53°
2026-04-21 18:07 -38.71612 -58.94198 36269 ft 461 kts 53°
2026-04-21 18:08 -38.67854 -58.87571 36269 ft 461 kts 53°
2026-04-21 18:08 -38.64673 -58.81970 36269 ft 461 kts 53°
2026-04-21 18:09 -38.60888 -58.75316 36269 ft 461 kts 53°
2026-04-21 18:09 -38.57138 -58.68736 36269 ft 461 kts 53°
2026-04-21 18:10 -38.53366 -58.62129 36269 ft 461 kts 53°
2026-04-21 18:10 -38.49606 -58.55555 36269 ft 461 kts 52°
2026-04-21 18:11 -38.45845 -58.48991 36269 ft 461 kts 52°
2026-04-21 18:11 -38.42065 -58.42403 36269 ft 461 kts 52°
2026-04-21 18:12 -38.38296 -58.35846 36269 ft 461 kts 52°
2026-04-21 18:12 -38.34524 -58.29295 36269 ft 461 kts 52°
2026-04-21 18:13 -38.30750 -58.22749 36269 ft 461 kts 52°
2026-04-21 18:13 -38.26958 -58.16184 36269 ft 461 kts 52°
2026-04-21 18:14 -38.21287 -58.06383 36269 ft 461 kts 52°
2026-04-21 18:15 -38.17502 -57.99854 36269 ft 461 kts 52°
2026-04-21 18:15 -38.13703 -57.93307 36269 ft 461 kts 52°
2026-04-21 18:16 -38.09915 -57.86787 36269 ft 461 kts 52°
2026-04-21 18:16 -38.06126 -57.80273 36269 ft 461 kts 52°
2026-04-21 18:17 -38.02324 -57.73740 36269 ft 461 kts 52°
2026-04-21 18:17 -37.98535 -57.67229 36269 ft 461 kts 52°
2026-04-21 18:18 -37.94504 -57.60997 36266 ft 458 kts 39°
2026-04-21 18:18 -37.91914 -57.58690 36268 ft 456 kts 27°
2026-04-21 18:18 -37.89088 -57.56934 36270 ft 455 kts 23°
2026-04-21 18:19 -37.83278 -57.53748 36269 ft 455 kts 22°
2026-04-21 18:19 -37.77465 -57.50626 36269 ft 456 kts 22°
2026-04-21 18:20 -37.71653 -57.47512 36269 ft 456 kts 22°
2026-04-21 18:20 -37.65816 -57.44390 36269 ft 456 kts 22°
2026-04-21 18:21 -37.59993 -57.41280 36269 ft 456 kts 22°
2026-04-21 18:21 -37.54175 -57.38176 36269 ft 456 kts 22°
2026-04-21 18:22 -37.48351 -57.35074 36269 ft 456 kts 22°
2026-04-21 18:22 -37.42506 -57.31965 36269 ft 456 kts 22°
2026-04-21 18:23 -37.36678 -57.28869 36269 ft 456 kts 22°
2026-04-21 18:23 -37.30850 -57.25777 36269 ft 456 kts 22°
2026-04-21 18:24 -37.25003 -57.22679 36269 ft 456 kts 22°
2026-04-21 18:24 -37.19171 -57.19592 36269 ft 456 kts 22°
2026-04-21 18:25 -37.13340 -57.16509 36269 ft 456 kts 22°
2026-04-21 18:25 -37.07510 -57.13430 36269 ft 457 kts 22°
2026-04-21 18:26 -37.01659 -57.10343 36269 ft 457 kts 22°
2026-04-21 18:26 -36.95826 -57.07268 36269 ft 457 kts 22°
2026-04-21 18:27 -36.89998 -57.04196 36269 ft 457 kts 22°
2026-04-21 18:27 -36.84145 -57.01113 36269 ft 457 kts 22°
2026-04-21 18:28 -36.78307 -56.98033 36269 ft 457 kts 22°
2026-04-21 18:28 -36.72462 -56.95023 36269 ft 457 kts 21°
2026-04-21 18:29 -36.66588 -56.92091 36269 ft 457 kts 21°
2026-04-21 18:29 -36.60688 -56.89157 36269 ft 457 kts 21°
2026-04-21 18:30 -36.54806 -56.86236 36269 ft 457 kts 21°
2026-04-21 18:30 -36.48925 -56.83319 36269 ft 457 kts 21°
2026-04-21 18:31 -36.43025 -56.80397 36269 ft 457 kts 21°
2026-04-21 18:31 -36.37145 -56.77490 36269 ft 457 kts 21°
2026-04-21 18:32 -36.31253 -56.74580 35996 ft 463 kts 21°
2026-04-21 18:32 -36.28223 -56.73086 35382 ft 476 kts 21°
2026-04-21 18:32 -36.25133 -56.71564 34766 ft 484 kts 21°
2026-04-21 18:32 -36.22003 -56.70022 34140 ft 480 kts 21°
2026-04-21 18:33 -36.18935 -56.68511 33518 ft 474 kts 21°
2026-04-21 18:33 -36.15899 -56.67016 32894 ft 468 kts 21°
2026-04-21 18:33 -36.12899 -56.65540 32272 ft 464 kts 21°
2026-04-21 18:33 -36.09916 -56.64074 31648 ft 459 kts 21°
2026-04-21 18:34 -36.06978 -56.62631 31026 ft 455 kts 21°
2026-04-21 18:34 -36.04063 -56.61200 30404 ft 450 kts 21°
2026-04-21 18:34 -36.01158 -56.59774 29777 ft 446 kts 20°
2026-04-21 18:34 -35.98300 -56.58373 29154 ft 441 kts 20°
2026-04-21 18:35 -35.96417 -56.57450 28741 ft 438 kts 20°
2026-04-21 18:35 -35.92664 -56.55612 27908 ft 433 kts 20°
2026-04-21 18:35 -35.89895 -56.54256 27286 ft 428 kts 20°
2026-04-21 18:35 -35.87145 -56.52911 26663 ft 424 kts 20°
2026-04-21 18:36 -35.84427 -56.51582 26041 ft 420 kts 20°
2026-04-21 18:36 -35.81716 -56.50258 25414 ft 416 kts 20°
2026-04-21 18:36 -35.79045 -56.48953 24790 ft 412 kts 20°
2026-04-21 18:36 -35.76408 -56.47666 24168 ft 408 kts 20°
2026-04-21 18:37 -35.73794 -56.46390 23545 ft 404 kts 20°
2026-04-21 18:37 -35.71205 -56.45127 22922 ft 400 kts 20°
2026-04-21 18:37 -35.68641 -56.43878 22299 ft 396 kts 20°
2026-04-21 18:37 -35.66099 -56.42639 21676 ft 392 kts 20°
2026-04-21 18:38 -35.63567 -56.41406 21049 ft 388 kts 20°
2026-04-21 18:38 -35.61079 -56.40195 20426 ft 384 kts 20°
2026-04-21 18:38 -35.58610 -56.38994 19803 ft 380 kts 20°
2026-04-21 18:38 -35.56170 -56.37806 19180 ft 377 kts 20°
2026-04-21 18:39 -35.53752 -56.36631 18557 ft 373 kts 20°
2026-04-21 18:39 -35.51526 -56.35549 17979 ft 370 kts 20°
2026-04-21 18:39 -35.49152 -56.34395 17356 ft 366 kts 20°
2026-04-21 18:39 -35.46783 -56.33244 16728 ft 363 kts 20°
2026-04-21 18:40 -35.44456 -56.32113 16106 ft 359 kts 20°
2026-04-21 18:40 -35.42149 -56.30993 15483 ft 356 kts 20°
2026-04-21 18:40 -35.40630 -56.30255 15069 ft 354 kts 20°
2026-04-21 18:40 -35.37602 -56.28784 14237 ft 349 kts 20°
2026-04-21 18:41 -35.35360 -56.27695 13614 ft 346 kts 20°
2026-04-21 18:41 -35.33139 -56.26615 12991 ft 343 kts 20°
2026-04-21 18:41 -35.30923 -56.25538 12363 ft 339 kts 20°
2026-04-21 18:41 -35.28661 -56.24863 11739 ft 335 kts
2026-04-21 18:42 -35.26371 -56.24505 11113 ft 329 kts
2026-04-21 18:42 -35.24202 -56.24198 10696 ft 299 kts
2026-04-21 18:42 -35.22249 -56.23923 10509 ft 267 kts
2026-04-21 18:42 -35.20482 -56.23674 10214 ft 245 kts
2026-04-21 18:43 -35.18901 -56.23452 10167 ft 215 kts
2026-04-21 18:43 -35.17445 -56.23248 9843 ft 207 kts
2026-04-21 18:43 -35.16026 -56.23050 9495 ft 204 kts
2026-04-21 18:43 -35.14622 -56.22854 9130 ft 203 kts
2026-04-21 18:44 -35.13230 -56.22660 8720 ft 201 kts
2026-04-21 18:44 -35.11850 -56.22468 8264 ft 200 kts
2026-04-21 18:44 -35.10491 -56.22279 7893 ft 195 kts
2026-04-21 18:44 -35.09158 -56.22093 7489 ft 192 kts
2026-04-21 18:45 -35.07828 -56.21908 7069 ft 191 kts
2026-04-21 18:45 -35.06517 -56.21727 6655 ft 189 kts
2026-04-21 18:45 -35.05201 -56.21547 6224 ft 190 kts
2026-04-21 18:45 -35.03901 -56.21366 5867 ft 188 kts
2026-04-21 18:46 -35.02611 -56.21187 5494 ft 186 kts
2026-04-21 18:46 -35.01331 -56.21008 5118 ft 185 kts
2026-04-21 18:46 -35.00056 -56.20831 4743 ft 184 kts
2026-04-21 18:46 -34.98779 -56.20653 4368 ft 183 kts
2026-04-21 18:47 -34.97519 -56.20477 3998 ft 182 kts
2026-04-21 18:47 -34.96263 -56.20301 3630 ft 181 kts
2026-04-21 18:47 -34.95016 -56.20127 3265 ft 180 kts
2026-04-21 18:47 -34.93934 -56.19571 3079 ft 160 kts 49°
2026-04-21 18:48 -34.93288 -56.18593 2942 ft 142 kts 56°
2026-04-21 18:48 -34.92709 -56.17649 2666 ft 137 kts 56°
2026-04-21 18:48 -34.92141 -56.16720 2350 ft 136 kts 56°
2026-04-21 18:48 -34.91576 -56.15796 1998 ft 137 kts 56°
2026-04-21 18:49 -34.91011 -56.14871 1751 ft 136 kts 56°
2026-04-21 18:49 -34.90432 -56.13920 1732 ft 143 kts 56°
2026-04-21 18:49 -34.90038 -56.13274 1725 ft 143 kts 56°
2026-04-21 18:49 -34.89265 -56.12001 1721 ft 140 kts 56°
2026-04-21 18:50 -34.88683 -56.11046 1575 ft 140 kts 56°
2026-04-21 18:50 -34.88105 -56.10097 1372 ft 139 kts 56°
2026-04-21 18:50 -34.87527 -56.09148 1177 ft 140 kts 56°
2026-04-21 18:50 -34.86947 -56.08196 977 ft 140 kts 56°
2026-04-21 18:51 -34.86372 -56.07252 777 ft 139 kts 56°
2026-04-21 18:51 -34.85794 -56.06301 580 ft 140 kts 56°
2026-04-21 18:51 -34.85217 -56.05352 380 ft 140 kts 56°
2026-04-21 18:51 -34.84644 -56.04407 181 ft 139 kts 56°
2026-04-21 18:52 -34.84080 -56.03488 59 ft 125 kts 54°
2026-04-21 18:52 -34.83658 -56.02786 74 ft 81 kts 53°
2026-04-21 18:52 -34.83405 -56.02369 78 ft 43 kts 53°
2026-04-21 18:52 -34.83268 -56.02147 81 ft 28 kts 52°
2026-04-21 18:53 -34.83183 -56.01974 83 ft 20 kts 94°
2026-04-21 18:53 -34.83259 -56.01878 84 ft 14 kts 144°
2026-04-21 18:53 -34.83320 -56.01824 84 ft 8 kts 143°
2026-04-21 18:53 -34.83350 -56.01796 83 ft 4 kts 143°
2026-04-21 18:54 -34.83363 -56.01785 83 ft 1 kts 143°
2026-04-21 18:54 -34.83365 -56.01784 83 ft 0 kts 143°
2026-04-21 18:54 -34.83380 -56.01770 83 ft 7 kts 143°
2026-04-21 18:54 -34.83442 -56.01715 82 ft 15 kts 149°
2026-04-21 18:55 -34.83525 -56.01694 80 ft 22 kts 178°
2026-04-21 18:55 -34.83736 -56.01693 74 ft 22 kts 178°
2026-04-21 18:55 -34.83832 -56.01766 71 ft 16 kts 275°
2026-04-21 18:55 -34.83829 -56.01801 72 ft 0 kts 280°
2026-04-21 18:56 -34.83830 -56.01814 72 ft 7 kts 257°
2026-04-21 18:56 -34.83878 -56.01933 71 ft 25 kts 251°
2026-04-21 18:56 -34.83928 -56.02117 71 ft 19 kts 251°
2026-04-21 18:57 -34.83957 -56.02240 71 ft 11 kts 256°
2026-04-21 18:57 -34.83968 -56.02301 71 ft 3 kts 269°
2026-04-21 18:57 -34.83960 -56.02337 71 ft 6 kts 287°
2026-04-21 18:57 -34.83944 -56.02395 72 ft 8 kts 297°
2026-04-21 18:58 -34.83887 -56.02399 73 ft 10 kts 29°
2026-04-21 18:58 -34.83843 -56.02354 74 ft 0 kts 40°